Meteo pe oră la Abisynia

Astăzi, 26 Iulie, Luni

Timp Temperatura Precipitaţii Vânt Presiune Umiditate
00:00 +20°C° 0 mm 3 m/s 744 mmHg 76%
01:00 +20°C° 0 mm 3 m/s 744 mmHg 75%
02:00 +21°C° 0 mm 3 m/s 743 mmHg 74%
03:00 +20°C° 0 mm 3 m/s 743 mmHg 74%
04:00 +20°C° 0 mm 3 m/s 743 mmHg 74%
05:00 +20°C° 0 mm 4 m/s 743 mmHg 74%
06:00 +21°C° 0 mm 4 m/s 743 mmHg 72%
07:00 +21°C° 0 mm 4 m/s 743 mmHg 70%
08:00 +22°C° 0 mm 4 m/s 743 mmHg 68%
09:00 +24°C° 0 mm 3 m/s 743 mmHg 68%
10:00 +24°C° 0 mm 3 m/s 743 mmHg 67%
11:00 +25°C° 0 mm 3 m/s 744 mmHg 67%
12:00 +26°C° 0 mm 3 m/s 743 mmHg 60%
13:00 +28°C° 0 mm 4 m/s 743 mmHg 54%
14:00 +30°C° 0 mm 5 m/s 743 mmHg 48%
15:00 +30°C° 0 mm 5 m/s 743 mmHg 50%
16:00 +29°C° 0 mm 5 m/s 743 mmHg 52%
17:00 +29°C° 0 mm 5 m/s 742 mmHg 54%
18:00 +27°C° 0.9 mm 5 m/s 742 mmHg 64%
19:00 +25°C° 0.9 mm 5 m/s 742 mmHg 75%
20:00 +22°C° 0.9 mm 6 m/s 742 mmHg 85%
21:00 +21°C° 1.2 mm 6 m/s 742 mmHg 86%
22:00 +21°C° 1.2 mm 6 m/s 742 mmHg 87%
23:00 +21°C° 1.2 mm 6 m/s 742 mmHg 88%

Mâine, 27 Iulie, Marţi

Timp Temperatura Precipitaţii Vânt Presiune Umiditate
00:00 +20°C° 0.2 mm 5 m/s 742 mmHg 89%
01:00 +19°C° 0.2 mm 4 m/s 742 mmHg 91%
02:00 +18°C° 0.2 mm 3 m/s 742 mmHg 93%
03:00 +18°C° 0.1 mm 3 m/s 742 mmHg 93%
04:00 +18°C° 0.1 mm 3 m/s 742 mmHg 92%
05:00 +18°C° 0.1 mm 3 m/s 741 mmHg 92%
06:00 +20°C° 0.3 mm 3 m/s 742 mmHg 87%
07:00 +22°C° 0.3 mm 3 m/s 742 mmHg 82%
08:00 +25°C° 0.3 mm 3 m/s 742 mmHg 77%
09:00 +27°C° 0 mm 4 m/s 742 mmHg 68%
10:00 +29°C° 0 mm 4 m/s 742 mmHg 59%
11:00 +32°C° 0 mm 5 m/s 742 mmHg 50%
12:00 +32°C° 0 mm 5 m/s 742 mmHg 49%
13:00 +33°C° 0 mm 5 m/s 742 mmHg 47%
14:00 +33°C° 0 mm 6 m/s 742 mmHg 46%
15:00 +32°C° 0.1 mm 6 m/s 742 mmHg 53%
16:00 +29°C° 0.1 mm 5 m/s 742 mmHg 60%
17:00 +28°C° 0.1 mm 5 m/s 742 mmHg 67%
18:00 +26°C° 0 mm 4 m/s 742 mmHg 71%
19:00 +25°C° 0 mm 3 m/s 742 mmHg 76%
20:00 +24°C° 0 mm 2 m/s 742 mmHg 80%
21:00 +23°C° 0.2 mm 2 m/s 742 mmHg 83%
22:00 +22°C° 0.2 mm 1 m/s 743 mmHg 87%
23:00 +21°C° 0.2 mm 1 m/s 743 mmHg 90%

Poimâine, 28 Iulie, Miercuri

Timp Temperatura Precipitaţii Vânt Presiune Umiditate
00:00 +20°C° 0 mm 1 m/s 743 mmHg 90%
01:00 +20°C° 0 mm 1 m/s 743 mmHg 90%
02:00 +20°C° 0 mm 1 m/s 743 mmHg 90%
03:00 +19°C° 0 mm 1 m/s 743 mmHg 90%
04:00 +19°C° 0 mm 1 m/s 743 mmHg 89%
05:00 +19°C° 0 mm 1 m/s 743 mmHg 89%
06:00 +21°C° 0 mm 1 m/s 743 mmHg 83%
07:00 +20°C° 0 mm 0 m/s 743 mmHg 77%
08:00 +22°C° 0 mm 0 m/s 743 mmHg 71%
09:00 +25°C° 0 mm 1 m/s 743 mmHg 65%
10:00 +27°C° 0 mm 1 m/s 743 mmHg 59%
11:00 +28°C° 0 mm 2 m/s 743 mmHg 52%
12:00 +29°C° 0 mm 2 m/s 743 mmHg 50%
13:00 +30°C° 0 mm 2 m/s 743 mmHg 49%
14:00 +31°C° 0 mm 2 m/s 742 mmHg 47%
15:00 +30°C° 0.1 mm 3 m/s 742 mmHg 49%
16:00 +30°C° 0.1 mm 3 m/s 742 mmHg 52%
17:00 +29°C° 0.1 mm 4 m/s 742 mmHg 54%
18:00 +27°C° 0.1 mm 3 m/s 741 mmHg 60%
19:00 +25°C° 0.1 mm 2 m/s 741 mmHg 66%
20:00 +23°C° 0.1 mm 1 m/s 740 mmHg 72%
21:00 +23°C° 0.4 mm 2 m/s 740 mmHg 78%
22:00 +21°C° 0.4 mm 2 m/s 740 mmHg 83%
23:00 +20°C° 0.4 mm 2 m/s 740 mmHg 89%

29 Iulie, Joi

Timp Temperatura Precipitaţii Vânt Presiune Umiditate
00:00 +20°C° 0.7 mm 2 m/s 740 mmHg 91%
01:00 +20°C° 0.7 mm 2 m/s 740 mmHg 93%
02:00 +20°C° 0.7 mm 2 m/s 739 mmHg 95%
03:00 +19°C° 0.3 mm 2 m/s 740 mmHg 96%
04:00 +19°C° 0.3 mm 3 m/s 740 mmHg 96%
05:00 +19°C° 0.3 mm 3 m/s 740 mmHg 97%
06:00 +19°C° 0 mm 4 m/s 740 mmHg 95%
07:00 +20°C° 0 mm 5 m/s 741 mmHg 93%
08:00 +21°C° 0 mm 5 m/s 741 mmHg 91%
09:00 +22°C° 0 mm 5 m/s 742 mmHg 82%
10:00 +23°C° 0 mm 5 m/s 742 mmHg 74%
11:00 +26°C° 0 mm 5 m/s 743 mmHg 65%
12:00 +27°C° 0 mm 5 m/s 743 mmHg 59%
13:00 +27°C° 0 mm 5 m/s 743 mmHg 54%
14:00 +28°C° 0 mm 5 m/s 743 mmHg 49%
15:00 +28°C° 0 mm 4 m/s 742 mmHg 48%
16:00 +28°C° 0 mm 4 m/s 742 mmHg 47%
17:00 +28°C° 0 mm 4 m/s 742 mmHg 47%
18:00 +27°C° 0 mm 3 m/s 742 mmHg 53%
19:00 +25°C° 0 mm 2 m/s 742 mmHg 59%
20:00 +21°C° 0 mm 0 m/s 742 mmHg 64%
21:00 +23°C° 0 mm 1 m/s 742 mmHg 66%
22:00 +22°C° 0 mm 1 m/s 742 mmHg 68%
23:00 +20°C° 0 mm 2 m/s 742 mmHg 70%

30 Iulie, Vineri

Timp Temperatura Precipitaţii Vânt Presiune Umiditate
00:00 +20°C° 0 mm 2 m/s 742 mmHg 72%
01:00 +19°C° 0 mm 2 m/s 742 mmHg 75%
02:00 +19°C° 0 mm 2 m/s 742 mmHg 78%
03:00 +18°C° 0 mm 2 m/s 741 mmHg 79%
04:00 +18°C° 0 mm 3 m/s 741 mmHg 81%
05:00 +18°C° 0 mm 3 m/s 741 mmHg 83%
06:00 +20°C° 0 mm 3 m/s 741 mmHg 77%
07:00 +22°C° 0 mm 4 m/s 741 mmHg 71%
08:00 +25°C° 0 mm 4 m/s 741 mmHg 66%
09:00 +26°C° 0 mm 4 m/s 740 mmHg 60%
10:00 +28°C° 0 mm 5 m/s 740 mmHg 54%
11:00 +30°C° 0 mm 5 m/s 740 mmHg 47%
12:00 +30°C° 0 mm 5 m/s 739 mmHg 48%
13:00 +32°C° 0 mm 5 m/s 739 mmHg 48%
14:00 +33°C° 0 mm 5 m/s 738 mmHg 48%
15:00 +33°C° 0 mm 5 m/s 738 mmHg 48%
16:00 +33°C° 0 mm 5 m/s 738 mmHg 49%
17:00 +33°C° 0 mm 4 m/s 737 mmHg 49%
18:00 +28°C° 6.7 mm 4 m/s 737 mmHg 64%
19:00 +24°C° 6.7 mm 3 m/s 737 mmHg 78%
20:00 +19°C° 6.7 mm 3 m/s 737 mmHg 93%
21:00 +19°C° 0.7 mm 2 m/s 738 mmHg 94%
22:00 +19°C° 0.7 mm 2 m/s 738 mmHg 94%
23:00 +20°C° 0.7 mm 1 m/s 738 mmHg 95%

31 Iulie, Sâmbătă

Timp Temperatura Precipitaţii Vânt Presiune Umiditate
00:00 +19°C° 0.4 mm 2 m/s 738 mmHg 95%
01:00 +19°C° 0.4 mm 2 m/s 738 mmHg 95%
02:00 +19°C° 0.4 mm 3 m/s 738 mmHg 95%
03:00 +19°C° 0.1 mm 2 m/s 738 mmHg 95%
04:00 +19°C° 0.1 mm 2 m/s 738 mmHg 96%
05:00 +18°C° 0.1 mm 2 m/s 738 mmHg 96%
06:00 +19°C° 0 mm 2 m/s 739 mmHg 91%
07:00 +20°C° 0 mm 2 m/s 739 mmHg 87%
08:00 +21°C° 0 mm 2 m/s 739 mmHg 82%
09:00 +23°C° 0 mm 2 m/s 739 mmHg 74%
10:00 +25°C° 0 mm 2 m/s 739 mmHg 66%
11:00 +26°C° 0 mm 1 m/s 739 mmHg 58%
12:00 +27°C° 0 mm 2 m/s 739 mmHg 53%
13:00 +28°C° 0 mm 3 m/s 739 mmHg 49%
14:00 +28°C° 0 mm 3 m/s 739 mmHg 45%
15:00 +28°C° 0 mm 4 m/s 739 mmHg 47%
16:00 +28°C° 0 mm 4 m/s 739 mmHg 49%
17:00 +28°C° 0 mm 4 m/s 738 mmHg 51%
18:00 +25°C° 0 mm 4 m/s 739 mmHg 56%
19:00 +22°C° 0 mm 5 m/s 739 mmHg 60%
20:00 +20°C° 0 mm 5 m/s 740 mmHg 64%
21:00 +19°C° 0 mm 4 m/s 740 mmHg 69%
22:00 +18°C° 0 mm 3 m/s 740 mmHg 74%
23:00 +18°C° 0 mm 2 m/s 740 mmHg 79%
Arată mai mult

Formular de consimțământ

Meteoprog și furnizorii noștri de servicii pot stoca și accesa date personale, precum cookies, identificatori de dispozitiv sau alte tehnologii similare pe dispozitivul dumneavoastră și procesa astfel de date pentru a personaliza conținutul și reclamele, dar și pentru a oferi caracteristici de social media și pentru a analiza traficul.

  • Stocarea și/sau accesarea informațiilor pe dispozitivul dumneavoastră

    Cookies, identificatori de dispozitiv sau alte informații pot fi stocate sau accesate pe dispozitiv în scopurile indicate mai sus.

  • Reclame și conținut personalizat, evaluarea reclamelor și a conținutului, informații despre audiențe și dezvoltarea produselor

    Reclamele și conținutul pot fi personalizate pe baza unui profil. Pot fi adăugate date suplimentare pentru a personaliza mai bine reclamele și conținutul. Performanța reclamelor și conținutului poate fi măsurată. Pot fi obținute informații despre utilizatorii care au văzut reclamele și conținutul. Aceste date pot fi utilizate pentru a dezvolta sau îmbunătăți experiența utilizatorilor, sistemele și software-ul.

Dând clic pe ‘Sunt de acord’, permiteți utilizarea cookie-urilor menționate, a identificatorilor de dispozitiv, balizelor web sau altor tehnologii similare. Setările pot fi modificate din browser-ul dispozitivului dumneavoastră.

În anumite scopuri, interesele legitime pot prima asupra consimțământului. Puteți citi mai multe informații în acest sens în Politica privind Confidențialitatea Datelor și Cookie.